| time (UTC) | temp F | wind direction | speed MPH | gust MPH | rain 1hr in | rain 24hr in | rain mn in | humidity % | barometer mb |
| 20260506154600 | 56 | 0 | 0.0 | 0.0 | 0.11 | 1.51 | 0.56 | 94 | 1012.3 |
| 20260506153054 | 56 | 280 | 3.0 | 6.0 | 0.12 | 1.50 | 0.55 | 93 | 1012.4 |
| 20260506151604 | 55 | 0 | 0.0 | 4.0 | 0.26 | 1.47 | 0.52 | 93 | 1012.1 |
| 20260506150103 | 56 | 0 | 0.0 | 3.0 | 0.44 | 1.42 | 0.48 | 92 | 1012.4 |
| 20260506144552 | 56 | 61 | 0.0 | 3.0 | 0.42 | 1.39 | 0.44 | 92 | 1012.4 |
| 20260506143056 | 56 | 327 | 2.0 | 8.0 | 0.40 | 1.37 | 0.43 | 90 | 1011.9 |
| 20260506141555 | 56 | 65 | 3.0 | 8.0 | 0.25 | 1.19 | 0.25 | 86 | 1012.2 |
| 20260506140055 | 58 | 44 | 5.0 | 12.0 | 0.03 | 0.98 | 0.03 | 83 | 1012.0 |
| 20260506134556 | 58 | 85 | 5.0 | 12.0 | 0.02 | 1.04 | 0.02 | 82 | 1011.9 |
| 20260506133107 | 59 | 125 | 2.0 | 9.0 | 0.02 | 1.04 | 0.02 | 83 | 1012.0 |
| 20260506131614 | 60 | 166 | 2.0 | 12.0 | 0.00 | 1.02 | 0.00 | 77 | 1012.0 |
| 20260506130108 | 62 | 124 | 2.0 | 6.0 | 0.00 | 1.02 | 0.00 | 73 | 1012.3 |
| 20260506124556 | 62 | 147 | 3.0 | 9.0 | 0.00 | 1.02 | 0.00 | 72 | 1012.0 |
| 20260506123059 | 63 | 171 | 5.0 | 11.0 | 0.00 | 1.02 | 0.00 | 69 | 1012.0 |
| 20260506121609 | 65 | 170 | 5.0 | 12.0 | 0.00 | 1.02 | 0.00 | 66 | 1011.8 |
| 20260506120111 | 67 | 198 | 2.0 | 10.0 | 0.00 | 1.02 | 0.00 | 62 | 1011.7 |
| 20260506114558 | 69 | 142 | 3.0 | 10.0 | 0.00 | 1.02 | 0.00 | 61 | 1011.8 |
| 20260506113057 | 66 | 181 | 0.0 | 4.0 | 0.00 | 1.02 | 0.00 | 61 | 1011.8 |
| 20260506111553 | 65 | 0 | 0.0 | 2.0 | 0.00 | 1.02 | 0.00 | 63 | 1012.1 |
| 20260506110113 | 64 | 314 | 2.0 | 6.0 | 0.00 | 1.02 | 0.00 | 63 | 1012.3 |
| 20260506104611 | 65 | 319 | 0.0 | 6.0 | 0.00 | 1.02 | 0.00 | 64 | 1012.4 |
| 20260506103053 | 65 | 150 | 0.0 | 7.0 | 0.00 | 1.02 | 0.00 | 65 | 1012.6 |
| 20260506101553 | 63 | 0 | 0.0 | 1.0 | 0.00 | 1.02 | 0.00 | 68 | 1012.8 |
| 20260506100113 | 62 | 0 | 0.0 | 2.0 | 0.00 | 1.02 | 0.00 | 66 | 1012.8 |
| 20260506094600 | 61 | 49 | 1.0 | 3.0 | 0.00 | 1.02 | 0.00 | 66 | 1012.9 |
| 20260506093101 | 61 | 49 | 0.0 | 3.0 | 0.00 | 1.02 | 0.00 | 65 | 1013.0 |
| 20260506091556 | 61 | 0 | 1.0 | 4.0 | 0.00 | 1.02 | 0.00 | 62 | 1012.8 |
| 20260506090053 | 61 | 80 | 2.0 | 5.0 | 0.00 | 1.02 | 0.00 | 62 | 1012.7 |
| 20260506084631 | 62 | 0 | 2.0 | 7.0 | 0.00 | 1.02 | 0.00 | 61 | 1012.6 |
| 20260506083055 | 63 | 63 | 3.0 | 8.0 | 0.00 | 1.02 | 0.00 | 62 | 1012.4 |
| 20260506081558 | 62 | 48 | 0.0 | 4.0 | 0.00 | 1.02 | 0.00 | 66 | 1012.4 |
| 20260506073055 | 60 | 312 | 2.0 | 5.0 | 0.00 | 1.02 | 0.00 | 68 | 1012.3 |
| 20260506071558 | 58 | 58 | 1.0 | 5.0 | 0.00 | 1.02 | 0.00 | 72 | 1012.3 |
| 20260506061556 | 55 | 0 | 0.0 | 1.0 | 0.00 | 1.02 | 0.00 | 78 | 1012.1 |
| 20260506044552 | 53 | 54 | 3.0 | 5.0 | 0.00 | 1.02 | 0.00 | 82 | 1011.4 |
| 20260506043053 | 0 | 0 | 0.0 | 2.0 | 0.00 | 1.02 | 0.00 | 82 | 1011.2 |
| 20260506041604 | 0 | 31 | 1.0 | 0.0 | 0.00 | 1.02 | 0.00 | 1011.1 | |
| 20260506040059 | 53 | 0 | 0.0 | 4.0 | 0.00 | 1.02 | 0.00 | 82 | 1011.1 |
| 20260506034558 | 53 | 62 | 1.0 | 4.0 | 0.00 | 1.02 | 0.00 | 81 | 1011.0 |
| 20260506033054 | 53 | 5 | 1.0 | 8.0 | 0.00 | 1.02 | 0.00 | 81 | 1011.0 |
| 20260506031557 | 53 | 355 | 1.0 | 5.0 | 0.00 | 1.02 | 0.00 | 81 | 1011.0 |
| 20260506030052 | 53 | 349 | 2.0 | 7.0 | 0.00 | 1.02 | 0.00 | 82 | 1010.9 |
| 20260506024605 | 52 | 5 | 2.0 | 6.0 | 0.00 | 1.02 | 0.00 | 82 | 1010.9 |
| 20260506023110 | 52 | 17 | 3.0 | 7.0 | 0.00 | 1.02 | 0.00 | 81 | 1010.7 |
| 20260506021622 | 53 | 49 | 3.0 | 10.0 | 0.00 | 1.02 | 0.00 | 80 | 1010.8 |
| 20260506020100 | 53 | 15 | 3.0 | 9.0 | 0.00 | 1.02 | 0.00 | 81 | 1010.8 |
| 20260506014610 | 53 | 53 | 2.0 | 8.0 | 0.00 | 1.02 | 0.00 | 80 | 1010.8 |
| 20260506013109 | 53 | 331 | 2.0 | 9.0 | 0.00 | 1.02 | 0.00 | 79 | 1010.7 |
| 20260506011614 | 53 | 18 | 2.0 | 9.0 | 0.00 | 1.02 | 0.00 | 80 | 1010.7 |
| 20260506010059 | 53 | 345 | 3.0 | 8.0 | 0.00 | 1.02 | 0.00 | 82 | 1010.8 |
| 20260506004556 | 53 | 338 | 4.0 | 9.0 | 0.00 | 1.02 | 0.00 | 82 | 1010.9 |
| 20260506003058 | 52 | 18 | 4.0 | 11.0 | 0.00 | 1.02 | 0.00 | 82 | 1011.1 |
| 20260506001557 | 52 | 13 | 3.0 | 11.0 | 0.00 | 1.02 | 0.00 | 83 | 1011.2 |
| 20260506000057 | 52 | 360 | 3.0 | 8.0 | 0.00 | 1.02 | 0.00 | 84 | 1011.1 |
| 20260505234558 | 52 | 333 | 4.0 | 10.0 | 0.00 | 1.07 | 0.00 | 84 | 1011.5 |
| 20260505233053 | 53 | 261 | 3.0 | 8.0 | 0.00 | 1.07 | 0.00 | 84 | 1011.7 |
| 20260505231608 | 52 | 348 | 2.0 | 8.0 | 0.00 | 1.07 | 0.00 | 84 | 1011.7 |
| 20260505230053 | 53 | 12 | 4.0 | 13.0 | 0.00 | 1.07 | 0.00 | 84 | 1011.6 |
| 20260505224555 | 53 | 231 | 6.0 | 14.0 | 0.00 | 1.07 | 0.00 | 84 | 1011.3 |
| 20260505223058 | 53 | 313 | 9.0 | 15.0 | 0.00 | 1.07 | 0.00 | 84 | 1011.5 |
| 20260505221552 | 52 | 30 | 6.0 | 17.0 | 0.00 | 1.07 | 0.00 | 85 | 1011.6 |
| 20260505220100 | 52 | 36 | 7.0 | 16.0 | 0.00 | 1.07 | 0.00 | 86 | 1011.8 |
| 20260505214559 | 52 | 42 | 8.0 | 17.0 | 0.00 | 1.07 | 1.07 | 86 | 1011.9 |
| 20260505213056 | 52 | 73 | 8.0 | 11.0 | 0.00 | 1.07 | 1.07 | 87 | 1011.9 |
| 20260505211553 | 52 | 60 | 7.0 | 13.0 | 0.00 | 1.07 | 1.07 | 87 | 1012.2 |
| 20260505210058 | 52 | 85 | 8.0 | 17.0 | 0.00 | 1.07 | 1.07 | 87 | 1011.8 |
| 20260505204600 | 52 | 344 | 7.0 | 14.0 | 0.02 | 1.07 | 1.07 | 88 | 1011.8 |
| 20260505203110 | 52 | 86 | 6.0 | 15.0 | 0.03 | 1.07 | 1.07 | 88 | 1011.8 |
| 20260505201604 | 52 | 28 | 6.0 | 12.0 | 0.04 | 1.07 | 1.07 | 88 | 1011.7 |
| 20260505200055 | 52 | 346 | 6.0 | 18.0 | 0.15 | 1.07 | 1.07 | 86 | 1011.7 |
| 20260505194557 | 52 | 74 | 7.0 | 14.0 | 0.13 | 1.05 | 1.04 | 88 | 1011.8 |
| 20260505193056 | 52 | 9 | 4.0 | 12.0 | 0.12 | 1.04 | 1.03 | 91 | 1012.7 |
| 20260505191610 | 52 | 342 | 2.0 | 10.0 | 0.11 | 1.03 | 1.02 | 92 | 1012.2 |
| 20260505184552 | 52 | 48 | 9.0 | 17.0 | 0.46 | 0.73 | 0.72 | 89 | 1011.5 |
| 20260505183056 | 53 | 78 | 9.0 | 22.0 | 0.36 | 0.58 | 0.57 | 88 | 1011.3 |
| 20260505181556 | 53 | 109 | 14.0 | 23.0 | 0.18 | 0.40 | 0.39 | 87 | 1011.3 |
| 20260505174552 | 58 | 69 | 2.0 | 6.0 | 0.05 | 0.26 | 0.25 | 91 | 1010.4 |
| 20260505173058 | 59 | 87 | 4.0 | 9.0 | 0.00 | 0.22 | 0.21 | 89 | 1010.2 |
| 20260505171556 | 59 | 55 | 3.0 | 5.0 | 0.00 | 0.21 | 0.20 | 89 | 1010.3 |
| 20260505170109 | 59 | 250 | 2.0 | 5.0 | 0.00 | 0.21 | 0.20 | 90 | 1010.5 |
| 20260505164555 | 60 | 0 | 0.0 | 3.0 | 0.00 | 0.24 | 0.20 | 89 | 1010.3 |
| 20260505163056 | 60 | 115 | 2.0 | 5.0 | 0.00 | 0.24 | 0.20 | 89 | 1010.4 |
| 20260505161615 | 59 | 49 | 2.0 | 5.0 | 0.00 | 0.24 | 0.20 | 91 | 1010.7 |